Regional Weather Roundup
Issued by NWS

Home | Current Version | Previous Version | Graphics & Text | Print | Product List | Glossary On
Versions: 1 2 3 4 5 6 7 8 9 10 11 12 13 14 15 16 17 18 19 20 21 22 23 24 25 26 27 28 29 30 31 32 33 34 35 36 37 38 39 40 41 42 43 44 45 46 47 48 49 50
000
ASUS43 KFSD 221302
RWRSD

WEATHER ROUNDUP FOR SOUTH DAKOTA
NATIONAL WEATHER SERVICE SIOUX FALLS SD
800 AM CDT TUE JUL 22 2014

NOTE: "FAIR" INDICATES FEW OR NO CLOUDS BELOW 12,000 FEET WITH NO
SIGNIFICANT WEATHER AND/OR OBSTRUCTIONS TO VISIBILITY.


SDZ001>005-009-010-012>017-221400-
NORTHWEST AND NORTH CENTRAL SOUTH DAKOTA

CITY           SKY/WX    TMP DP  RH WIND       PRES   REMARKS
BUFFALO          N/A     60  59  96 CALM      30.14R
FAITH            N/A     64  60  87 CALM      30.18R
MOBRIDGE       CLOUDY    65  63  93 N8        30.12R
$$

SDZ012>016-024>037-041>051-057-063-072>074-221400-
SOUTHWEST AND SOUTH CENTRAL SOUTH DAKOTA

CITY           SKY/WX    TMP DP  RH WIND       PRES   REMARKS
RAPID CTY ARPT MOSUNNY   67  64  90 N5        30.20R
PIERRE         CLOUDY    66  63  90 NW13      30.15R
CUSTER         MOSUNNY   64  50  60 NE6       30.33R
ELLSWORTH AFB  SUNNY     65  64  93 NW5       30.21R
PHILIP         CLOUDY    66  63  90 E6        30.13F
PINE RIDGE     SUNNY     65  62  90 SW3       30.19R
WINNER         FAIR      68  64  87 N8        30.11F
$$

SDZ004>011-016>023-039-040-221400-
NORTHEAST SOUTH DAKOTA

CITY           SKY/WX    TMP DP  RH WIND       PRES   REMARKS
ABERDEEN       SUNNY     66  63  90 N14       30.09R
WATERTOWN      PTSUNNY   68  63  84 N14       30.06S
SISSETON         N/A     68  65  90 N15       30.04R
$$

SDZ017-020-022-023-036>040-048>070-221400-
SOUTHEAST SOUTH DAKOTA

CITY           SKY/WX    TMP DP  RH WIND       PRES   REMARKS
SIOUX FALLS    CLOUDY    71  65  81 N8        30.00R
HURON          MOSUNNY   67  63  87 N15       30.07R
CHAMBERLAIN    PTSUNNY   66  64  92 NW8       30.12R
MITCHELL       PTSUNNY   69  66  90 W16G25    30.06R
YANKTON        PTSUNNY   72  63  73 CALM      29.98R
$$

ABBREVIATIONS USED IN REMARKS
   TC - TEMPERATURE IN CELSIUS
  WCI - WIND CHILL INDEX
   HX - HEAT INDEX
  VSB - VISIBILITY




USA.gov is the U.S. government's official web portal to all federal, state and local government web resources and services.